Regional Weather Roundup
Issued by NWS

Home | Current Version | Previous Version | Text Only | Print | Product List | Glossary On
Versions: 1 2 3 4 5 6 7 8 9 10 11 12 13 14 15 16 17 18 19 20 21 22 23 24 25 26 27 28 29 30 31 32 33 34 35 36 37 38 39 40 41 42 43 44 45 46 47 48 49 50
000
ASUS44 KMEG 232310
RWRTN
TENNESSEE HOURLY STATE WEATHER ROUNDUP
NATIONAL WEATHER SERVICE MEMPHIS TN
600 PM CDT SUN JUL 23 2017

TNZ002-004-019-021-049-052-054-088>092-240000-
WEST TENNESSEE

CITY           SKY/WX    TMP DP  RH WIND       PRES   REMARKS
MEMPHIS INTL   PTSUNNY   88  72  58 N9        29.83F THUNDER HX  94
NWS MEMPHIS      N/A     79 N/A N/A MISG        N/A
JACKSON        FAIR      92  75  57 W3        29.82S HX 103
SOMERVILLE       N/A     88  75  66 W13G18    29.82F HX  97
BOLIVAR        PTSUNNY   82  72  69 S10G20    29.84R
PARIS          SUNNY     86  77  74 CALM      29.82F HX  97
HUNTINGDON     SUNNY     88  75  66 CALM      29.83R HX  97
LEXINGTON      PTSUNNY   84  73  70 NW12      29.83R HX  91
SELMER         SUNNY     86  75  70 CALM      29.84S HX  95
SAVANNAH       SUNNY     84  77  79 S6        29.82F HX  94
$$

TNZ008-025-027-028-033-062-065-066-240000-
NORTH MIDDLE TENNESSEE

CITY           SKY/WX    TMP DP  RH WIND       PRES   REMARKS
NASHVILLE      PTSUNNY   90  74  59 W14       29.82F HX  99
PORTLAND       SUNNY     91  75  59 NW5       29.82S HX 102
CLARKSVILLE    FAIR      91  73  55 NW8       29.82F HX  99
SMYRNA         PTSUNNY   91  75  59 SW10      29.81F HX 101
COOKEVILLE     SUNNY     88  77  70 SW6       29.85S HX 100
GALLATIN       SUNNY     90  75  62 VRB6G12   29.83S HX 100
CROSSVILLE     FAIR      82  72  71 VRB7      29.92F
$$

TNZ061-075-076-078-094-096-097-240000-
SOUTH MIDDLE TENNESSEE

CITY           SKY/WX    TMP DP  RH WIND       PRES   REMARKS
FAYETTEVILLE   MOSUNNY   88  73  62 S13       29.87S HX  96
TULLAHOMA        N/A     84  72  65 S8        29.88F
WINCHESTER     MOSUNNY   84  73  70 S6        29.88S HX  91
MCMINNVILLE    SUNNY     91  75  59 SW6       29.86S HX 102
COLUMBIA       SUNNY     88  75  66 SW8G15    29.81F HX  97
SHELBYVILLE    MOSUNNY   90  73  58 SW6       29.84S HX  98
$$

TNZ017-018-042-046-047-240000-
NORTHEAST TENNESSEE

CITY           SKY/WX    TMP DP  RH WIND       PRES   REMARKS
TRI CITIES     PTSUNNY   86  73  65 S7        29.88S HX  93
ELIZABETHTON   FAIR      84  73  70 CALM      29.89S HX  91
$$

TNZ012-013-036-069-073-074-240000-
CENTRAL EAST TENNESSEE

CITY           SKY/WX    TMP DP  RH WIND       PRES   REMARKS
KNOXVILLE      CLOUDY    84  70  62 SW12      29.86S
OAK RIDGE      FAIR      86  72  62 VRB7      29.86F HX  92
DOWNTOWN KNOXV SUNNY     86  75  70 W8G14     29.84F HX  95
GATLINBURG     SUNNY     90  68  48 SW9       29.85S HX  93
MORRISTOWN     MOSUNNY   88  70  55 SW8G20    29.86R HX  92
JACKSBORO      SUNNY     86  77  74 VRB5      29.88S HX  97
$$

TNZ083-085-099-240000-
SOUTHEAST TENNESSEE

CITY           SKY/WX    TMP DP  RH WIND       PRES   REMARKS
CHATTANOOGA    PTSUNNY   86  74  67 NW6       29.87S HX  94
DAYTON         CLEAR     82  79  89 SW5       29.86F HX  93
$$

SKY/WX REPORTED AS FAIR MEANS FEW OR NO CLOUDS BELOW
12 THOUSAND FEET.





USA.gov is the U.S. government's official web portal to all federal, state and local government web resources and services.